Torna al catalogo

FENGYUN 1C DEB

AttivoSSO
NORAD 30621·DEBRIS·🇨🇳 China

Lanciato May 10, 1999 da Taiyuan Satellite Launch Center

Loading…

Prossimi Passaggi (prossime 24 ore)

TLE

AggiornatoSource: Space-Track

Epoca: Sep 14, 2026, 06:47 UTC

1 30621U 99025ANC 26257.28276103  .00001959  00000-0  11418-2 0  9999
2 30621  98.7021 194.4343 0132270 252.3358 267.6528 14.05370412994580

Traccia FENGYUN 1C DEB in tempo reale con AllMySat

Download on the App Store